Dewpoint
26 33 42 54 56 57 58 59 60 60 60 60 60 60 61 61 61 63 63 63 59 60 60 59 57 58 56 56 56 55 54 55 54 55 55 55 55 57 58 58 57 56 57
29 47 53 53 56 56 57 58 59 60 60 60 59 60 61 61 62 62 61 62 62 60 60 59 57 57 58 58 57 57 57 56 57 55 55 53 55 57 57 57 55 54 54
33 49 52 52 53 55 56 57 58 59 59 60 59 59 60 61 60 61 62 62 62 62 61 60 60 60 60 59 59 58 57 56 58 57 57 54 53 55 55 55 54 53 53
45 49 51 52 52 52 55 57 58 59 59 59 59 59 58 58 59 59 61 62 62 62 62 62 62 61 61 61 60 60 59 59 58 59 60 58 56 52 51 54 53 52 51
47 50 52 52 55 55 54 56 56 58 60 61 61 60 59 59 60 61 61 61 62 62 62 63 63 61 61 61 61 61 60 60 59 59 59 58 58 57 54 52 52 53 51
47 48 49 50 51 53 53 54 55 55 57 59 60 60 59 59 59 60 59 60 61 61 62 62 62 62 62 61 61 60 60 60 59 60 59 58 57 56 54 53 53 53 55
45 47 47 48 49 50 51 52 52 52 54 55 57 58 59 59 59 59 59 59 59 59 60 61 61 61 61 61 61 60 60 61 60 60 60 58 57 56 56 55 53 52 53
44 45 45 45 46 46 49 50 50 50 51 52 53 54 55 60 59 59 59 59 59 60 60 61 61 60 61 61 61 61 60 61 60 60 59 58 57 56 56 55 53 51 51
43 44 45 45 45 45 45 43 45 46 48 50 51 51 53 56 58 59 58 58 59 60 60 60 60 60 60 61 61 60 60 59 60 60 59 58 58 57 57 56 55 53 48
43 43 43 43 43 42 42 42 41 41 44 46 48 50 50 51 53 55 56 58 59 59 59 59 60 60 60 60 60 60 59 59 59 59 58 58 58 57 57 55 54 53 50
42 42 42 42 42 41 42 39 39 38 37 42 42 43 45 47 49 49 49 50 52 54 56 58 59 59 59 59 60 59 59 58 58 58 57 57 57 57 56 55 53 51 49
40 41 41 40 41 40 39 36 36 36 36 37 39 40 40 41 41 42 44 46 46 47 49 52 54 57 59 59 59 59 59 58 58 58 57 56 55 56 55 54 53 52 50
39 38 37 34 33 34 34 35 36 36 37 37 38 39 40 40 40 41 42 43 45 46 46 48 50 52 53 56 58 59 59 58 58 58 56 56 55 55 54 53 52 51 49
31 31 31 31 32 33 34 35 35 36 36 37 38 39 39 40 40 40 41 41 43 44 45 45 47 48 49 51 52 55 55 56 56 56 56 56 55 55 53 52 51 49 48
30 31 31 31 31 32 34 34 34 35 36 36 37 37 38 38 39 39 40 41 42 42 43 44 45 45 46 46 47 49 51 52 52 51 52 53 52 50 52 51 49 48 47
31 31 30 31 31 31 33 32 32 34 35 35 35 35 35 36 36 37 39 39 40 40 41 41 42 43 44 46 47 46 47 48 49 49 49 50 48 49 50 50 48 48 47
30 30 30 30 30 30 33 30 31 33 31 33 33 32 33 34 35 36 37 37 37 38 38 39 41 42 43 45 46 46 45 46 46 46 46 46 46 47 47 49 49 48 48
30 30 30 30 30 30 31 29 30 30 30 29 31 31 32 32 32 34 33 34 36 37 38 38 39 41 42 45 46 46 43 42 42 43 44 44 43 43 44 44 43 44 45
30 30 30 29 29 27 29 27 27 27 28 27 30 29 30 30 30 30 31 32 34 34 36 38 38 40 41 43 45 45 42 40 38 39 41 43 42 43 44 41 39 39 38
29 28 27 26 25 24 27 26 26 26 26 26 28 29 29 29 28 29 30 31 32 32 34 36 35 38 38 41 43 44 43 40 40 40 38 42 42 43 44 40 38 37 36
24 26 24 24 24 25 26 26 26 26 27 28 28 28 28 27 27 28 29 28 29 30 30 31 32 33 35 37 41 43 43 42 40 40 40 40 42 43 44 41 38 38 34
23 23 22 23 23 24 23 23 23 24 22 22 24 25 25 25 25 25 26 26 26 28 28 29 29 31 33 35 37 40 41 42 41 40 40 40 42 43 44 43 40 39 36
20 20 20 21 21 21 21 20 20 20 19 20 21 21 21 22 23 24 24 25 26 27 27 28 29 29 28 30 33 36 38 39 40 42 41 41 41 42 43 43 41 40 33
19 20 20 20 19 19 19 20 20 18 18 18 19 19 20 21 23 25 25 26 26 26 27 28 26 26 26 27 29 31 34 38 39 40 41 41 41 41 42 42 41 38 32
20 20 20 20 20 19 18 17 17 18 17 17 18 18 20 20 22 24 26 27 27 28 28 29 29 26 24 25 29 30 30 33 36 39 36 37 37 37 37 37 38 36 33
20 20 20 19 19 19 19 19 19 20 19 19 19 20 20 21 24 26 26 29 30 29 30 30 29 29 30 29 29 30 31 32 35 36 34 35 36 36 36 36 36 35 34
Lifted_Index
9 9 7 4 2 1 0 -0 -0 -0 0 0 1 1 1 1 1 1 1 1 1 1 1 1 1 1 2 2 3 3 4 4 5 5 4 4 3 2 1 1 1 1 1
8 7 4 2 1 0 -0 -0 -0 -0 -0 -0 -0 0 0 0 1 1 1 1 1 1 1 1 1 2 2 2 2 2 3 3 3 4 3 3 2 1 0 0 1 1 1
5 4 2 1 -0 -0 -1 -1 -0 -0 -0 -1 -1 -1 -0 0 0 1 1 1 1 1 1 1 1 2 2 2 1 1 1 1 2 2 2 1 0 -0 -1 -0 0 -0 -0
2 1 0 -1 -1 -1 -1 -0 -0 -0 -1 -1 -1 -1 -0 0 1 1 1 1 1 1 1 1 1 2 2 1 0 -0 -0 0 1 1 1 0 -0 -0 -0 -0 -0 -0 -0
0 -0 -1 -1 -1 -1 -1 -0 0 -0 -0 -1 -1 -0 0 1 1 1 1 1 1 1 1 1 1 1 1 1 0 -0 -0 0 0 1 0 0 0 0 0 0 0 1 1
-0 -0 -1 -2 -2 -1 -1 -0 0 0 -0 -0 -0 -0 0 1 1 1 2 2 2 2 2 2 2 2 2 1 1 0 0 0 1 1 1 1 0 1 1 1 1 1 2
-0 -0 -1 -1 -1 -1 -1 -0 -0 0 0 0 0 1 1 1 1 1 1 2 2 2 2 2 2 2 2 2 2 1 1 1 1 1 1 1 1 1 1 1 2 2 2
-0 -0 -0 -0 -0 -0 -0 -0 0 0 0 1 1 2 1 1 1 1 2 2 2 2 2 2 2 2 2 2 2 2 2 2 2 1 1 1 1 1 1 2 2 2 2
1 1 1 1 1 1 1 1 1 1 1 1 2 2 2 2 2 2 2 2 2 2 2 2 2 2 2 2 2 2 2 2 2 1 1 1 1 1 2 2 2 2 2
2 3 3 4 3 3 3 3 2 2 2 2 3 3 3 3 2 2 2 2 2 2 2 2 2 2 2 2 2 2 2 2 2 1 1 1 1 2 2 2 2 3 3
4 5 6 6 6 6 6 5 5 5 5 5 5 5 5 4 4 4 3 3 3 3 3 2 2 2 2 1 1 1 1 1 1 1 1 1 1 2 2 2 3 3 3
6 6 7 8 8 8 7 8 8 8 8 8 8 8 7 7 7 7 6 6 5 5 5 4 4 3 2 2 1 1 1 1 1 1 1 1 1 1 1 2 2 2 3
6 7 7 8 8 8 8 8 9 9 9 9 9 9 9 9 9 9 9 9 8 8 8 7 6 5 4 3 2 1 1 1 0 0 0 0 1 1 1 1 1 1 2
7 7 7 8 8 8 8 8 9 9 10 10 10 10 10 11 11 11 11 11 11 10 10 9 9 8 7 5 4 3 2 1 1 0 0 0 0 0 1 1 1 1 2
7 7 7 7 7 8 8 9 9 10 10 11 11 11 12 12 12 12 12 12 12 12 11 11 10 9 8 7 6 5 4 3 2 2 1 1 1 1 1 1 1 1 2
7 7 8 8 8 8 9 10 10 11 12 12 12 13 13 13 13 14 14 14 14 13 13 13 12 11 10 8 7 6 6 5 4 3 2 2 2 1 1 1 1 1 2
7 8 8 9 9 10 10 11 12 12 13 13 14 14 15 15 15 15 15 15 15 15 15 14 14 13 11 10 9 8 7 6 5 4 3 3 2 1 1 1 1 1 2
8 8 9 10 11 12 12 13 14 14 14 15 15 16 17 17 17 17 17 17 17 17 16 16 15 14 13 11 10 9 8 7 6 5 4 3 3 2 1 1 1 1 2
10 10 11 12 12 13 14 14 15 16 16 17 17 18 19 19 18 18 18 18 18 17 17 17 16 16 14 13 11 10 9 8 7 6 5 4 3 3 2 2 2 2 3
11 11 12 13 14 15 16 16 16 17 18 18 19 20 21 20 20 20 20 20 20 19 18 18 17 17 15 13 12 10 9 8 7 6 6 5 4 4 4 3 3 3 4
12 12 13 14 16 17 17 18 18 19 20 20 21 21 22 22 22 22 22 22 21 20 19 18 18 17 16 14 12 10 9 8 7 7 6 5 5 5 5 5 4 5 5
13 14 15 16 17 19 19 20 20 21 22 23 23 23 23 23 23 22 22 21 20 19 18 17 16 16 15 14 12 9 7 7 7 6 6 5 5 5 5 5 5 6 6
15 16 17 18 19 20 21 22 23 23 24 24 24 24 24 23 22 21 19 17 16 15 15 14 14 13 13 12 11 9 7 6 6 6 5 5 5 6 6 6 6 6 7
18 18 19 20 21 22 23 23 24 24 24 24 24 23 23 21 19 17 15 14 12 12 12 12 12 11 11 11 10 9 8 6 6 5 5 4 5 5 6 6 6 6 6
19 20 21 21 22 23 23 23 24 24 24 23 23 21 20 18 16 14 13 11 10 10 10 10 11 11 10 10 10 10 9 8 7 6 5 3 3 4 5 5 5 6 6
20 20 21 22 22 23 23 23 23 23 23 23 22 20 17 15 14 13 12 10 9 9 10 10 10 10 10 11 11 10 10 9 7 6 4 3 3 4 5 5 5 5 5